Taylorsville Lake Weather Center

Moon Phase Calendar



Taylorsville Lake Water Level
Online Cameras

 


      

Current Conditions in Taylorsville
4/13/2024 2:27:57 PM

67°F
Feels Like 65
Clear
Humidity
37%
Pressure
30.15"
Wind
11.6 mph (WNW)
Dew Point
40°F
UV Index
7/10 (High)
Visibility
6 mi

Hourly Forecast

Date & Time Sat, Apr 13
2:00 PM
Sat, Apr 13
3:00 PM
Sat, Apr 13
4:00 PM
Sat, Apr 13
5:00 PM
Sat, Apr 13
6:00 PM
Sat, Apr 13
7:00 PM
Sat, Apr 13
8:00 PM
Sat, Apr 13
9:00 PM
Sat, Apr 13
10:00 PM
Sat, Apr 13
11:00 PM
Sun, Apr 14
12:00 AM
Sun, Apr 14
1:00 AM
Sun, Apr 14
2:00 AM
Sun, Apr 14
3:00 AM
Sun, Apr 14
4:00 AM
Sun, Apr 14
5:00 AM
Sun, Apr 14
6:00 AM
Sun, Apr 14
7:00 AM
Sun, Apr 14
8:00 AM
Sun, Apr 14
9:00 AM
Sun, Apr 14
10:00 AM
Sun, Apr 14
11:00 AM
Sun, Apr 14
12:00 PM
Sun, Apr 14
1:00 PM
Sun, Apr 14
2:00 PM
Sun, Apr 14
3:00 PM
Sun, Apr 14
4:00 PM
Sun, Apr 14
5:00 PM
Sun, Apr 14
6:00 PM
Sun, Apr 14
7:00 PM
Sun, Apr 14
8:00 PM
Sun, Apr 14
9:00 PM
Sun, Apr 14
10:00 PM
Sun, Apr 14
11:00 PM
Mon, Apr 15
12:00 AM
Mon, Apr 15
1:00 AM
Mon, Apr 15
2:00 AM
Mon, Apr 15
3:00 AM
Mon, Apr 15
4:00 AM
Mon, Apr 15
5:00 AM
Mon, Apr 15
6:00 AM
Mon, Apr 15
7:00 AM
Mon, Apr 15
8:00 AM
Mon, Apr 15
9:00 AM
Mon, Apr 15
10:00 AM
Mon, Apr 15
11:00 AM
Mon, Apr 15
12:00 PM
Mon, Apr 15
1:00 PM
Condition
Clear

Clear

Clear

Clear

Clear

Clear

Clear

Clear

Clear

Clear

Clear

Clear

Clear

Rain

Clouds

Clouds

Clouds

Clouds

Clouds

Clear

Clear

Clear

Clear

Clear

Clear

Clear

Clear

Clear

Clear

Clear

Clear

Clear

Clear

Clear

Clear

Clear

Clouds

Rain

Rain

Rain

Rain

Rain

Rain

Rain

Clouds

Clouds

Rain

Clouds
Temperature 67°F67°F66°F66°F66°F63°F57°F54°F53°F52°F52°F52°F53°F53°F54°F55°F55°F55°F56°F60°F64°F68°F70°F71°F73°F73°F73°F72°F70°F68°F66°F64°F61°F59°F58°F58°F60°F59°F59°F59°F59°F59°F59°F60°F64°F65°F67°F67°F
Feels Like 65°F65°F65°F65°F64°F62°F56°F53°F52°F51°F51°F51°F52°F52°F53°F54°F54°F54°F56°F60°F64°F68°F70°F71°F73°F73°F73°F72°F70°F68°F65°F63°F61°F59°F58°F58°F60°F59°F59°F59°F59°F59°F59°F61°F64°F66°F67°F68°F
Cloudiness 0%0%0%0%0%0%0%0%0%2%3%3%3%19%60%71%78%73%62%8%4%3%2%2%1%0%2%3%2%3%2%1%0%0%3%8%22%99%100%100%100%100%100%100%93%91%93%95%
Visibility 6 mi6 mi6 mi6 mi6 mi6 mi6 mi6 mi6 mi6 mi6 mi6 mi6 mi6 mi6 mi6 mi6 mi6 mi6 mi6 mi6 mi6 mi6 mi6 mi6 mi6 mi6 mi6 mi6 mi6 mi6 mi6 mi6 mi6 mi6 mi6 mi6 mi6 mi6 mi6 mi6 mi6 mi6 mi6 mi6 mi6 mi6 mi6 mi
Precipitation 0%0%0%0%0%0%0%0%0%0%0%0%0%76%57%44%32%22%13%0%0%0%0%0%0%0%0%0%0%0%0%0%0%0%0%0%0%100%100%100%100%100%100%93%90%82%77%71%
Humidity 37%39%42%47%57%73%78%78%80%83%86%86%82%85%88%88%92%94%93%88%81%74%69%66%65%65%65%68%70%74%77%80%86%91%94%95%91%96%97%97%97%97%97%96%93%89%86%87%
Dew Point 40°F41°F43°F45°F50°F53°F50°F47°F47°F47°F47°F47°F47°F49°F50°F51°F52°F53°F53°F56°F58°F59°F59°F59°F60°F60°F60°F60°F60°F59°F58°F57°F57°F57°F56°F56°F57°F58°F58°F58°F58°F58°F58°F59°F61°F62°F62°F63°F
Pressure 30.15"30.15"30.15"30.12"30.09"30.09"30.09"30.09"30.12"30.09"30.09"30.06"30.06"30.03"30.03"30"30"30"30"30"29.97"29.97"29.94"29.94"29.94"29.91"29.91"29.88"29.88"29.91"29.91"29.94"29.94"29.94"29.94"29.94"29.94"29.94"29.94"29.94"29.94"29.97"30"30"30"30.03"30.03"30"
Wind Speed 11.6 mph11.1 mph10.3 mph8.3 mph6.6 mph5.5 mph6.5 mph5.5 mph6.5 mph6.9 mph7.4 mph8.4 mph9.9 mph10 mph11.2 mph14.1 mph13.8 mph12.1 mph12.4 mph12.1 mph14 mph15.9 mph17.6 mph17.6 mph17.1 mph16.8 mph16.6 mph15.8 mph15.5 mph13.8 mph11.5 mph9.6 mph7.9 mph7.1 mph7.3 mph7.3 mph7.2 mph6.8 mph6.5 mph7.3 mph7.7 mph6.9 mph5.9 mph5.9 mph5.6 mph5.7 mph6.4 mph5.4 mph
Wind
Direction
286°
WNW
288°
WNW
286°
WNW
281°
W
263°
W
233°
SW
221°
SW
207°
SSW
200°
SSW
191°
S
185°
S
188°
S
195°
SSW
204°
SSW
205°
SSW
212°
SSW
216°
SW
216°
SW
212°
SSW
218°
SW
225°
SW
229°
SW
230°
SW
232°
SW
234°
SW
235°
SW
234°
SW
233°
SW
237°
WSW
242°
WSW
241°
WSW
237°
WSW
228°
SW
213°
SSW
207°
SSW
214°
SW
221°
SW
215°
SW
219°
SW
203°
SSW
211°
SSW
206°
SSW
202°
SSW
198°
SSW
213°
SSW
211°
SSW
209°
SSW
186°
S

Daily Forecast

Date High Low Precip. Humidity
Today
Apr 13

Clear
67 °F
41 °F
74%
40%
Sunday
Apr 14

Rain
73 °F
52 °F
76%
66%
Monday
Apr 15

Rain
72 °F
58 °F
100%
87%
Tuesday
Apr 16

Rain
72 °F
59 °F
100%
78%
Wednesday
Apr 17

Rain
71 °F
57 °F
100%
85%
Thursday
Apr 18

Clouds
68 °F
50 °F
0%
53%
Friday
Apr 19

Rain
59 °F
44 °F
100%
70%
Saturday
Apr 20

Clouds
56 °F
38 °F
0%
51%
Sunday
Apr 21

Clouds
56 °F
39 °F
0%
50%
Monday
Apr 22

Clear
64 °F
38 °F
0%
53%
Tuesday
Apr 23

Rain
58 °F
49 °F
100%
99%
Wednesday
Apr 24

Rain
54 °F
35 °F
100%
49%
Thursday
Apr 25

Rain
55 °F
38 °F
20%
56%
Friday
Apr 26

Clouds
57 °F
37 °F
0%
50%
Saturday
Apr 27

Rain
61 °F
41 °F
100%
50%
Sunday
Apr 28

Clear
63 °F
41 °F
0%
56%

Temperature 8-14 Day Outlook



Precipitation 8-14 Day Outlook




Quick Links
Taylorsville Lake News
Taylorsville Lake Photos
Taylorsville Lake Videos




About Us
Contact Us
Site Map
Search Site
Advertise With Us
   
Taylorsville.USLakes.info
THE TAYLORSVILLE LAKE WEBSITE

Copyright 2024, Lakes Online
Privacy    |    Legal